owner,sensor,date,latitude,longitude,air_pressure(mBar),qcFlag 
NDBC,ioos:station:wmo:42057:1,2017-03-05T06:40:00Z,17.0020,-81.5010,1014.5,1111122 
NDBC,ioos:station:wmo:42057:1,2017-03-05T07:50:00Z,17.0020,-81.5010,1014.0,1111122 
NDBC,ioos:station:wmo:42057:1,2017-03-05T08:40:00Z,17.0020,-81.5010,1013.8,1111122 
NDBC,ioos:station:wmo:42057:1,2017-03-05T09:40:00Z,17.0020,-81.5010,1013.8,1111122 
NDBC,ioos:station:wmo:42057:1,2017-03-05T10:40:00Z,17.0020,-81.5010,1014.3,1111122 
NDBC,ioos:station:wmo:42057:1,2017-03-05T11:40:00Z,17.0020,-81.5010,1015.0,1111122 
NDBC,ioos:station:wmo:42057:1,2017-03-05T12:40:00Z,17.0020,-81.5010,1015.5,1111122 
NDBC,ioos:station:wmo:42057:1,2017-03-05T13:40:00Z,17.0020,-81.5010,1016.0,1111122 
NDBC,ioos:station:wmo:42057:1,2017-03-05T14:40:00Z,17.0020,-81.5010,1016.3,1111122 
NDBC,ioos:station:wmo:42057:1,2017-03-05T15:50:00Z,17.0020,-81.5010,1016.4,1111122 
NDBC,ioos:station:wmo:42057:1,2017-03-05T16:40:00Z,17.0020,-81.5010,1016.0,1111122 
NDBC,ioos:station:wmo:42057:1,2017-03-05T17:50:00Z,17.0020,-81.5010,1015.1,1111122 
NDBC,ioos:station:wmo:42057:1,2017-03-05T18:40:00Z,17.0020,-81.5010,1014.5,1111122 
NDBC,ioos:station:wmo:42057:1,2017-03-05T19:40:00Z,17.0020,-81.5010,1014.0,1111122 
NDBC,ioos:station:wmo:42057:1,2017-03-05T20:40:00Z,17.0020,-81.5010,1013.4,1111122 
NDBC,ioos:station:wmo:42057:1,2017-03-05T21:40:00Z,17.0020,-81.5010,1013.0,1111122 
NDBC,ioos:station:wmo:42057:1,2017-03-05T22:40:00Z,17.0020,-81.5010,1013.3,1111122 
NDBC,ioos:station:wmo:42057:1,2017-03-05T23:50:00Z,17.0020,-81.5010,1013.8,1111122 
NDBC,ioos:station:wmo:42057:1,2017-03-06T00:40:00Z,17.0020,-81.5010,1014.1,1111122 
NDBC,ioos:station:wmo:42057:1,2017-03-06T01:40:00Z,17.0020,-81.5010,1014.8,1111122 
NDBC,ioos:station:wmo:42057:1,2017-03-06T02:40:00Z,17.0020,-81.5010,1015.1,1111122 
NDBC,ioos:station:wmo:42057:1,2017-03-06T03:40:00Z,17.0020,-81.5010,1015.1,1111122 
NDBC,ioos:station:wmo:42057:1,2017-03-06T04:40:00Z,17.0020,-81.5010,1015.1,1111122 
NDBC,ioos:station:wmo:42057:1,2017-03-06T05:40:00Z,17.0020,-81.5010,1014.8,1111122 
NDBC,ioos:station:wmo:42057:1,2017-03-06T06:40:00Z,17.0020,-81.5010,1014.5,1111122 
NDBC,ioos:station:wmo:42057:1,2017-03-06T07:40:00Z,17.0020,-81.5010,1014.1,1111122 
NDBC,ioos:station:wmo:42057:1,2017-03-06T08:50:00Z,17.0020,-81.5010,1014.3,1111122 
NDBC,ioos:station:wmo:42057:1,2017-03-06T09:40:00Z,17.0020,-81.5010,1013.9,1111122 
NDBC,ioos:station:wmo:42057:1,2017-03-06T10:40:00Z,17.0020,-81.5010,1014.5,1111122 
NDBC,ioos:station:wmo:42057:1,2017-03-06T11:50:00Z,17.0020,-81.5010,1014.6,1111122 
NDBC,ioos:station:wmo:42057:1,2017-03-06T12:40:00Z,17.0020,-81.5010,1015.0,1111122 
NDBC,ioos:station:wmo:42057:1,2017-03-06T13:30:00Z,17.0020,-81.5010,1015.5,1111122 
NDBC,ioos:station:wmo:42057:1,2017-03-06T14:40:00Z,17.0020,-81.5010,1016.0,1111122 
NDBC,ioos:station:wmo:42057:1,2017-03-06T15:40:00Z,17.0020,-81.5010,1016.1,1111122 
NDBC,ioos:station:wmo:42057:1,2017-03-06T16:40:00Z,17.0020,-81.5010,1016.0,1111122 
NDBC,ioos:station:wmo:42057:1,2017-03-06T17:40:00Z,17.0020,-81.5010,1015.5,1111122 
NDBC,ioos:station:wmo:42057:1,2017-03-06T18:40:00Z,17.0020,-81.5010,1014.6,1111122 
NDBC,ioos:station:wmo:42057:1,2017-03-06T19:50:00Z,17.0020,-81.5010,1014.0,1111122 
NDBC,ioos:station:wmo:42057:1,2017-03-06T20:40:00Z,17.0020,-81.5010,1013.9,1111122 
NDBC,ioos:station:wmo:42057:1,2017-03-06T21:40:00Z,17.0020,-81.5010,1013.6,1111122 
NDBC,ioos:station:wmo:42057:1,2017-03-06T22:40:00Z,17.0020,-81.5010,1013.9,1111122 
NDBC,ioos:station:wmo:42057:1,2017-03-06T23:50:00Z,17.0020,-81.5010,1014.0,1111122 
NDBC,ioos:station:wmo:42057:1,2017-03-07T00:40:00Z,17.0020,-81.5010,1014.5,1111122 
NDBC,ioos:station:wmo:42057:1,2017-03-07T01:20:00Z,17.0020,-81.5010,1015.1,1111122 
NDBC,ioos:station:wmo:42057:1,2017-03-07T02:50:00Z,17.0020,-81.5010,1015.9,1111122 
NDBC,ioos:station:wmo:42057:1,2017-03-07T03:40:00Z,17.0020,-81.5010,1016.0,1111122 
NDBC,ioos:station:wmo:42057:1,2017-03-07T04:40:00Z,17.0020,-81.5010,1015.8,1111122 
NDBC,ioos:station:wmo:42057:1,2017-03-07T05:40:00Z,17.0020,-81.5010,1015.5,1111122 
NDBC,ioos:station:wmo:42057:1,2017-03-07T06:40:00Z,17.0020,-81.5010,1015.0,1111122 
NDBC,ioos:station:wmo:42057:1,2017-03-07T07:50:00Z,17.0020,-81.5010,1014.5,1111122 
NDBC,ioos:station:wmo:42057:1,2017-03-07T08:40:00Z,17.0020,-81.5010,1014.5,1111122 
NDBC,ioos:station:wmo:42057:1,2017-03-07T09:40:00Z,17.0020,-81.5010,1014.5,1111122 
NDBC,ioos:station:wmo:42057:1,2017-03-07T10:40:00Z,17.0020,-81.5010,1014.9,1111122 
NDBC,ioos:station:wmo:42057:1,2017-03-07T11:40:00Z,17.0020,-81.5010,1015.5,1111122 
NDBC,ioos:station:wmo:42057:1,2017-03-07T12:40:00Z,17.0020,-81.5010,1016.5,1111122 
NDBC,ioos:station:wmo:42057:1,2017-03-07T13:10:00Z,17.0020,-81.5010,1016.5,1111122 
NDBC,ioos:station:wmo:42057:1,2017-03-07T14:50:00Z,17.0020,-81.5010,1017.4,1111122 
NDBC,ioos:station:wmo:42057:1,2017-03-07T15:40:00Z,17.0020,-81.5010,1017.6,1111122 
NDBC,ioos:station:wmo:42057:1,2017-03-07T16:40:00Z,17.0020,-81.5010,1017.6,1111122 
NDBC,ioos:station:wmo:42057:1,2017-03-07T17:40:00Z,17.0020,-81.5010,1016.9,1111122 
NDBC,ioos:station:wmo:42057:1,2017-03-07T18:50:00Z,17.0020,-81.5010,1016.0,1111122 
NDBC,ioos:station:wmo:42057:1,2017-03-07T19:40:00Z,17.0020,-81.5010,1015.5,1111122 
NDBC,ioos:station:wmo:42057:1,2017-03-07T20:40:00Z,17.0020,-81.5010,1015.0,1111122 
NDBC,ioos:station:wmo:42057:1,2017-03-07T21:40:00Z,17.0020,-81.5010,1015.1,1111122 
NDBC,ioos:station:wmo:42057:1,2017-03-07T22:50:00Z,17.0020,-81.5010,1015.5,1111122 
NDBC,ioos:station:wmo:42057:1,2017-03-08T00:40:00Z,17.0020,-81.5010,1016.5,1111122 
NDBC,ioos:station:wmo:42057:1,2017-03-08T01:10:00Z,17.0020,-81.5010,1016.9,1111122 
NDBC,ioos:station:wmo:42057:1,2017-03-08T02:40:00Z,17.0020,-81.5010,1017.5,1111122 
NDBC,ioos:station:wmo:42057:1,2017-03-08T03:40:00Z,17.0020,-81.5010,1017.6,1111122 
NDBC,ioos:station:wmo:42057:1,2017-03-08T04:40:00Z,17.0020,-81.5010,1017.5,1111122 
NDBC,ioos:station:wmo:42057:1,2017-03-08T05:50:00Z,17.0020,-81.5010,1017.1,1111122 
NDBC,ioos:station:wmo:42057:1,2017-03-08T06:40:00Z,17.0020,-81.5010,1016.5,1111122 
NDBC,ioos:station:wmo:42057:1,2017-03-08T07:40:00Z,17.0020,-81.5010,1016.1,1111122 
NDBC,ioos:station:wmo:42057:1,2017-03-08T08:40:00Z,17.0020,-81.5010,1016.0,1111122 
NDBC,ioos:station:wmo:42057:1,2017-03-08T09:50:00Z,17.0020,-81.5010,1016.3,1111122 
NDBC,ioos:station:wmo:42057:1,2017-03-08T10:40:00Z,17.0020,-81.5010,1016.8,1111122 
NDBC,ioos:station:wmo:42057:1,2017-03-08T11:20:00Z,17.0020,-81.5010,1017.3,1111122 
NDBC,ioos:station:wmo:42057:1,2017-03-08T12:40:00Z,17.0020,-81.5010,1018.0,1111122 
NDBC,ioos:station:wmo:42057:1,2017-03-08T13:30:00Z,17.0020,-81.5010,1019.0,1111122 
NDBC,ioos:station:wmo:42057:1,2017-03-08T14:50:00Z,17.0020,-81.5010,1019.0,1111122 
NDBC,ioos:station:wmo:42057:1,2017-03-08T15:50:00Z,17.0020,-81.5010,1018.8,1111122 
NDBC,ioos:station:wmo:42057:1,2017-03-08T16:40:00Z,17.0020,-81.5010,1018.3,1111122 
NDBC,ioos:station:wmo:42057:1,2017-03-08T17:40:00Z,17.0020,-81.5010,1017.8,1111122 
NDBC,ioos:station:wmo:42057:1,2017-03-08T18:40:00Z,17.0020,-81.5010,1016.9,1111122 
NDBC,ioos:station:wmo:42057:1,2017-03-08T19:50:00Z,17.0020,-81.5010,1016.0,1111122 
NDBC,ioos:station:wmo:42057:1,2017-03-08T20:40:00Z,17.0020,-81.5010,1015.8,1111122 
NDBC,ioos:station:wmo:42057:1,2017-03-08T21:40:00Z,17.0020,-81.5010,1015.6,1111122 
NDBC,ioos:station:wmo:42057:1,2017-03-08T22:40:00Z,17.0020,-81.5010,1015.5,1111122 
NDBC,ioos:station:wmo:42057:1,2017-03-08T23:30:00Z,17.0020,-81.5010,1015.6,1111122 
NDBC,ioos:station:wmo:42057:1,2017-03-09T00:50:00Z,17.0020,-81.5010,1016.0,1111122 
NDBC,ioos:station:wmo:42057:1,2017-03-09T01:50:00Z,17.0020,-81.5010,1016.9,1111122 
NDBC,ioos:station:wmo:42057:1,2017-03-09T02:40:00Z,17.0020,-81.5010,1017.0,1111122 
NDBC,ioos:station:wmo:42057:1,2017-03-09T03:50:00Z,17.0020,-81.5010,1017.4,1111122 
NDBC,ioos:station:wmo:42057:1,2017-03-09T04:50:00Z,17.0020,-81.5010,1017.0,1111122 
NDBC,ioos:station:wmo:42057:1,2017-03-09T05:40:00Z,17.0020,-81.5010,1016.8,1111122 
NDBC,ioos:station:wmo:42057:1,2017-03-09T06:40:00Z,17.0020,-81.5010,1015.5,1111122 
NDBC,ioos:station:wmo:42057:1,2017-03-09T07:40:00Z,17.0020,-81.5010,1015.4,1111122 
NDBC,ioos:station:wmo:42057:1,2017-03-09T08:40:00Z,17.0020,-81.5010,1015.0,1111122 
NDBC,ioos:station:wmo:42057:1,2017-03-09T09:40:00Z,17.0020,-81.5010,1015.1,1111122 
NDBC,ioos:station:wmo:42057:1,2017-03-09T10:40:00Z,17.0020,-81.5010,1015.5,1111122 
NDBC,ioos:station:wmo:42057:1,2017-03-09T11:40:00Z,17.0020,-81.5010,1016.3,1111122 
NDBC,ioos:station:wmo:42057:1,2017-03-09T12:40:00Z,17.0020,-81.5010,1016.6,1111122 
NDBC,ioos:station:wmo:42057:1,2017-03-09T13:40:00Z,17.0020,-81.5010,1016.9,1111122 
NDBC,ioos:station:wmo:42057:1,2017-03-09T14:50:00Z,17.0020,-81.5010,1017.6,1111122 
NDBC,ioos:station:wmo:42057:1,2017-03-09T15:40:00Z,17.0020,-81.5010,1017.5,1111122 
NDBC,ioos:station:wmo:42057:1,2017-03-09T16:40:00Z,17.0020,-81.5010,1016.8,1111122 
NDBC,ioos:station:wmo:42057:1,2017-03-09T17:40:00Z,17.0020,-81.5010,1016.1,1111122 
NDBC,ioos:station:wmo:42057:1,2017-03-09T18:50:00Z,17.0020,-81.5010,1015.0,1111122 
NDBC,ioos:station:wmo:42057:1,2017-03-09T19:40:00Z,17.0020,-81.5010,1014.3,1111122 
NDBC,ioos:station:wmo:42057:1,2017-03-09T20:40:00Z,17.0020,-81.5010,1013.9,1111122 
NDBC,ioos:station:wmo:42057:1,2017-03-09T21:40:00Z,17.0020,-81.5010,1013.6,1111122 
NDBC,ioos:station:wmo:42057:1,2017-03-09T22:50:00Z,17.0020,-81.5010,1013.6,1111122 
NDBC,ioos:station:wmo:42057:1,2017-03-09T23:50:00Z,17.0020,-81.5010,1014.0,1111122 
NDBC,ioos:station:wmo:42057:1,2017-03-10T00:40:00Z,17.0020,-81.5010,1014.4,1111122 
NDBC,ioos:station:wmo:42057:1,2017-03-10T01:00:00Z,17.0020,-81.5010,1014.6,1111122 
NDBC,ioos:station:wmo:42057:1,2017-03-10T02:40:00Z,17.0020,-81.5010,1015.5,1111122 
NDBC,ioos:station:wmo:42057:1,2017-03-10T03:40:00Z,17.0020,-81.5010,1015.5,1111122 
NDBC,ioos:station:wmo:42057:1,2017-03-10T04:30:00Z,17.0020,-81.5010,1016.2,1111122 
NDBC,ioos:station:wmo:42057:1,2017-03-10T05:40:00Z,17.0020,-81.5010,1015.1,1111122 
NDBC,ioos:station:wmo:42057:1,2017-03-10T07:20:00Z,17.0020,-81.5010,1013.8,1111122 
NDBC,ioos:station:wmo:42057:1,2017-03-10T07:40:00Z,17.0020,-81.5010,1013.6,1111122 
NDBC,ioos:station:wmo:42057:1,2017-03-10T08:40:00Z,17.0020,-81.5010,1013.4,1111122 
NDBC,ioos:station:wmo:42057:1,2017-03-10T09:40:00Z,17.0020,-81.5010,1013.4,1111122 
NDBC,ioos:station:wmo:42057:1,2017-03-10T10:40:00Z,17.0020,-81.5010,1013.9,1111122 
NDBC,ioos:station:wmo:42057:1,2017-03-10T11:40:00Z,17.0020,-81.5010,1014.5,1111122 
NDBC,ioos:station:wmo:42057:1,2017-03-10T12:40:00Z,17.0020,-81.5010,1015.1,1111122 
NDBC,ioos:station:wmo:42057:1,2017-03-10T13:40:00Z,17.0020,-81.5010,1015.8,1111122 
NDBC,ioos:station:wmo:42057:1,2017-03-10T14:40:00Z,17.0020,-81.5010,1016.4,1111122 
NDBC,ioos:station:wmo:42057:1,2017-03-10T15:40:00Z,17.0020,-81.5010,1016.5,1111122 
NDBC,ioos:station:wmo:42057:1,2017-03-10T16:40:00Z,17.0020,-81.5010,1016.1,1111122 
NDBC,ioos:station:wmo:42057:1,2017-03-10T17:40:00Z,17.0020,-81.5010,1015.1,1111122 
NDBC,ioos:station:wmo:42057:1,2017-03-10T18:40:00Z,17.0020,-81.5010,1014.5,1111122 
NDBC,ioos:station:wmo:42057:1,2017-03-10T19:40:00Z,17.0020,-81.5010,1013.9,1111122 
NDBC,ioos:station:wmo:42057:1,2017-03-10T20:50:00Z,17.0020,-81.5010,1013.1,1111122 
NDBC,ioos:station:wmo:42057:1,2017-03-10T21:40:00Z,17.0020,-81.5010,1013.1,1111122 
NDBC,ioos:station:wmo:42057:1,2017-03-10T22:40:00Z,17.0020,-81.5010,1013.3,1111122 
NDBC,ioos:station:wmo:42057:1,2017-03-10T23:40:00Z,17.0020,-81.5010,1013.5,1111122 
NDBC,ioos:station:wmo:42057:1,2017-03-11T00:40:00Z,17.0020,-81.5010,1014.1,1111122 
NDBC,ioos:station:wmo:42057:1,2017-03-11T01:40:00Z,17.0020,-81.5010,1014.4,1111122 
NDBC,ioos:station:wmo:42057:1,2017-03-11T02:40:00Z,17.0020,-81.5010,1015.0,1111122 
NDBC,ioos:station:wmo:42057:1,2017-03-11T03:30:00Z,17.0020,-81.5010,1015.3,1111122 
NDBC,ioos:station:wmo:42057:1,2017-03-11T05:40:00Z,17.0020,-81.5010,1014.8,1111122 
NDBC,ioos:station:wmo:42057:1,2017-03-11T06:30:00Z,17.0020,-81.5010,1014.1,1111122 
NDBC,ioos:station:wmo:42057:1,2017-03-11T07:40:00Z,17.0020,-81.5010,1013.5,1111122 
NDBC,ioos:station:wmo:42057:1,2017-03-11T08:40:00Z,17.0020,-81.5010,1013.3,1111122 
NDBC,ioos:station:wmo:42057:1,2017-03-11T09:30:00Z,17.0020,-81.5010,1013.4,1111122 
NDBC,ioos:station:wmo:42057:1,2017-03-11T10:40:00Z,17.0020,-81.5010,1013.9,1111122 
NDBC,ioos:station:wmo:42057:1,2017-03-11T11:40:00Z,17.0020,-81.5010,1014.5,1111122 
NDBC,ioos:station:wmo:42057:1,2017-03-11T12:40:00Z,17.0020,-81.5010,1014.9,1111122 
NDBC,ioos:station:wmo:42057:1,2017-03-11T13:40:00Z,17.0020,-81.5010,1015.6,1111122 
NDBC,ioos:station:wmo:42057:1,2017-03-11T14:40:00Z,17.0020,-81.5010,1016.1,1111122 
NDBC,ioos:station:wmo:42057:1,2017-03-11T15:50:00Z,17.0020,-81.5010,1016.5,1111122 
NDBC,ioos:station:wmo:42057:1,2017-03-11T16:40:00Z,17.0020,-81.5010,1016.1,1111122 
NDBC,ioos:station:wmo:42057:1,2017-03-11T17:40:00Z,17.0020,-81.5010,1015.4,1111122 
NDBC,ioos:station:wmo:42057:1,2017-03-11T18:40:00Z,17.0020,-81.5010,1014.5,1111122 
NDBC,ioos:station:wmo:42057:1,2017-03-11T19:40:00Z,17.0020,-81.5010,1014.0,1111122 
NDBC,ioos:station:wmo:42057:1,2017-03-11T20:50:00Z,17.0020,-81.5010,1013.1,1111122 
NDBC,ioos:station:wmo:42057:1,2017-03-11T21:40:00Z,17.0020,-81.5010,1013.0,1111122 
NDBC,ioos:station:wmo:42057:1,2017-03-11T22:40:00Z,17.0020,-81.5010,1013.3,1111122 
NDBC,ioos:station:wmo:42057:1,2017-03-11T23:40:00Z,17.0020,-81.5010,1013.6,1111122 
NDBC,ioos:station:wmo:42057:1,2017-03-12T00:40:00Z,17.0020,-81.5010,1014.0,1111122 
NDBC,ioos:station:wmo:42057:1,2017-03-12T01:50:00Z,17.0020,-81.5010,1014.5,1111122 
NDBC,ioos:station:wmo:42057:1,2017-03-12T02:40:00Z,17.0020,-81.5010,1014.9,1111122 
NDBC,ioos:station:wmo:42057:1,2017-03-12T03:40:00Z,17.0020,-81.5010,1015.1,1111122 
NDBC,ioos:station:wmo:42057:1,2017-03-12T04:50:00Z,17.0020,-81.5010,1015.0,1111122 
NDBC,ioos:station:wmo:42057:1,2017-03-12T05:50:00Z,17.0020,-81.5010,1014.5,1111122 
NDBC,ioos:station:wmo:42057:1,2017-03-12T06:40:00Z,17.0020,-81.5010,1013.9,1111122 
NDBC,ioos:station:wmo:42057:1,2017-03-12T07:40:00Z,17.0020,-81.5010,1013.0,1111122 
NDBC,ioos:station:wmo:42057:1,2017-03-12T08:40:00Z,17.0020,-81.5010,1012.8,1111122 
NDBC,ioos:station:wmo:42057:1,2017-03-12T09:40:00Z,17.0020,-81.5010,1012.8,1111122 
NDBC,ioos:station:wmo:42057:1,2017-03-12T10:40:00Z,17.0020,-81.5010,1013.1,1111122 
NDBC,ioos:station:wmo:42057:1,2017-03-12T11:40:00Z,17.0020,-81.5010,1013.9,1111122 
NDBC,ioos:station:wmo:42057:1,2017-03-12T12:40:00Z,17.0020,-81.5010,1014.3,1111122 
NDBC,ioos:station:wmo:42057:1,2017-03-12T13:40:00Z,17.0020,-81.5010,1015.0,1111122 
NDBC,ioos:station:wmo:42057:1,2017-03-12T14:40:00Z,17.0020,-81.5010,1015.5,1111122 
NDBC,ioos:station:wmo:42057:1,2017-03-12T15:50:00Z,17.0020,-81.5010,1015.9,1111122 
NDBC,ioos:station:wmo:42057:1,2017-03-12T16:40:00Z,17.0020,-81.5010,1015.5,1111122 
NDBC,ioos:station:wmo:42057:1,2017-03-12T17:40:00Z,17.0020,-81.5010,1014.9,1111122 
NDBC,ioos:station:wmo:42057:1,2017-03-12T18:40:00Z,17.0020,-81.5010,1014.0,1111122 
NDBC,ioos:station:wmo:42057:1,2017-03-12T19:50:00Z,17.0020,-81.5010,1012.9,1111122 
NDBC,ioos:station:wmo:42057:1,2017-03-12T20:50:00Z,17.0020,-81.5010,1012.5,1111122 
NDBC,ioos:station:wmo:42057:1,2017-03-12T21:50:00Z,17.0020,-81.5010,1012.4,1111122 
NDBC,ioos:station:wmo:42057:1,2017-03-12T22:50:00Z,17.0020,-81.5010,1012.3,1111122 
NDBC,ioos:station:wmo:42057:1,2017-03-12T23:40:00Z,17.0020,-81.5010,1012.5,1111122 
NDBC,ioos:station:wmo:42057:1,2017-03-13T00:40:00Z,17.0020,-81.5010,1012.9,1111122 
NDBC,ioos:station:wmo:42057:1,2017-03-13T01:40:00Z,17.0020,-81.5010,1013.6,1111122 
NDBC,ioos:station:wmo:42057:1,2017-03-13T02:50:00Z,17.0020,-81.5010,1014.3,1111122 
NDBC,ioos:station:wmo:42057:1,2017-03-13T03:40:00Z,17.0020,-81.5010,1014.5,1111122 
NDBC,ioos:station:wmo:42057:1,2017-03-13T04:50:00Z,17.0020,-81.5010,1014.5,1111122 
NDBC,ioos:station:wmo:42057:1,2017-03-13T05:40:00Z,17.0020,-81.5010,1014.3,1111122 
NDBC,ioos:station:wmo:42057:1,2017-03-13T06:50:00Z,17.0020,-81.5010,1013.5,1111122 
NDBC,ioos:station:wmo:42057:1,2017-03-13T07:40:00Z,17.0020,-81.5010,1013.0,1111122 
NDBC,ioos:station:wmo:42057:1,2017-03-13T08:40:00Z,17.0020,-81.5010,1012.6,1111122 
NDBC,ioos:station:wmo:42057:1,2017-03-13T09:50:00Z,17.0020,-81.5010,1012.8,1111122 
NDBC,ioos:station:wmo:42057:1,2017-03-13T10:40:00Z,17.0020,-81.5010,1013.1,1111122 
NDBC,ioos:station:wmo:42057:1,2017-03-13T11:40:00Z,17.0020,-81.5010,1013.5,1111122 
NDBC,ioos:station:wmo:42057:1,2017-03-13T12:40:00Z,17.0020,-81.5010,1014.0,1111122 
NDBC,ioos:station:wmo:42057:1,2017-03-13T13:50:00Z,17.0020,-81.5010,1014.5,1111122 
NDBC,ioos:station:wmo:42057:1,2017-03-13T14:50:00Z,17.0020,-81.5010,1014.6,1111122 
NDBC,ioos:station:wmo:42057:1,2017-03-13T15:40:00Z,17.0020,-81.5010,1014.6,1111122 
NDBC,ioos:station:wmo:42057:1,2017-03-13T16:40:00Z,17.0020,-81.5010,1014.4,1111122 
NDBC,ioos:station:wmo:42057:1,2017-03-13T17:40:00Z,17.0020,-81.5010,1013.9,1111122 
NDBC,ioos:station:wmo:42057:1,2017-03-13T18:40:00Z,17.0020,-81.5010,1013.0,1111122 
NDBC,ioos:station:wmo:42057:1,2017-03-13T19:50:00Z,17.0020,-81.5010,1012.0,1111122 
NDBC,ioos:station:wmo:42057:1,2017-03-13T20:40:00Z,17.0020,-81.5010,1011.4,1111122 
NDBC,ioos:station:wmo:42057:1,2017-03-13T21:40:00Z,17.0020,-81.5010,1011.4,1111122 
NDBC,ioos:station:wmo:42057:1,2017-03-13T22:40:00Z,17.0020,-81.5010,1011.6,1111122 
NDBC,ioos:station:wmo:42057:1,2017-03-13T23:50:00Z,17.0020,-81.5010,1012.1,1111122 
NDBC,ioos:station:wmo:42057:1,2017-03-14T00:40:00Z,17.0020,-81.5010,1013.0,1111122 
NDBC,ioos:station:wmo:42057:1,2017-03-14T01:20:00Z,17.0020,-81.5010,1013.5,1111122 
NDBC,ioos:station:wmo:42057:1,2017-03-14T02:40:00Z,17.0020,-81.5010,1014.1,1111122 
NDBC,ioos:station:wmo:42057:1,2017-03-14T03:40:00Z,17.0020,-81.5010,1014.4,1111122 
NDBC,ioos:station:wmo:42057:1,2017-03-14T04:40:00Z,17.0020,-81.5010,1014.1,1111122 
NDBC,ioos:station:wmo:42057:1,2017-03-14T05:40:00Z,17.0020,-81.5010,1014.1,1111122 
NDBC,ioos:station:wmo:42057:1,2017-03-14T06:40:00Z,17.0020,-81.5010,1013.0,1111122 
NDBC,ioos:station:wmo:42057:1,2017-03-14T07:40:00Z,17.0020,-81.5010,1012.9,1111122 
NDBC,ioos:station:wmo:42057:1,2017-03-14T08:40:00Z,17.0020,-81.5010,1012.8,1111122 
NDBC,ioos:station:wmo:42057:1,2017-03-14T09:40:00Z,17.0020,-81.5010,1013.1,1111122 
NDBC,ioos:station:wmo:42057:1,2017-03-14T10:40:00Z,17.0020,-81.5010,1013.5,1111122 
NDBC,ioos:station:wmo:42057:1,2017-03-14T11:40:00Z,17.0020,-81.5010,1014.5,1111122 
NDBC,ioos:station:wmo:42057:1,2017-03-14T12:40:00Z,17.0020,-81.5010,1015.5,1111122 
NDBC,ioos:station:wmo:42057:1,2017-03-14T13:40:00Z,17.0020,-81.5010,1015.9,1111122 
NDBC,ioos:station:wmo:42057:1,2017-03-14T14:40:00Z,17.0020,-81.5010,1016.4,1111122 
NDBC,ioos:station:wmo:42057:1,2017-03-14T15:40:00Z,17.0020,-81.5010,1016.5,1111122 
NDBC,ioos:station:wmo:42057:1,2017-03-14T16:50:00Z,17.0020,-81.5010,1016.4,1111122 
NDBC,ioos:station:wmo:42057:1,2017-03-14T17:50:00Z,17.0020,-81.5010,1016.0,1111122 
NDBC,ioos:station:wmo:42057:1,2017-03-14T18:40:00Z,17.0020,-81.5010,1015.5,1111122 
NDBC,ioos:station:wmo:42057:1,2017-03-14T19:40:00Z,17.0020,-81.5010,1015.0,1111122 
NDBC,ioos:station:wmo:42057:1,2017-03-14T20:40:00Z,17.0020,-81.5010,1014.3,1111122 
NDBC,ioos:station:wmo:42057:1,2017-03-14T21:40:00Z,17.0020,-81.5010,1014.4,1111122 
NDBC,ioos:station:wmo:42057:1,2017-03-14T22:40:00Z,17.0020,-81.5010,1014.6,1111122 
NDBC,ioos:station:wmo:42057:1,2017-03-14T23:40:00Z,17.0020,-81.5010,1014.8,1111122 
NDBC,ioos:station:wmo:42057:1,2017-03-15T00:50:00Z,17.0020,-81.5010,1015.5,1111122 
NDBC,ioos:station:wmo:42057:1,2017-03-15T01:40:00Z,17.0020,-81.5010,1016.1,1111122 
NDBC,ioos:station:wmo:42057:1,2017-03-15T02:40:00Z,17.0020,-81.5010,1016.8,1111122 
NDBC,ioos:station:wmo:42057:1,2017-03-15T03:40:00Z,17.0020,-81.5010,1016.9,1111122 
NDBC,ioos:station:wmo:42057:1,2017-03-15T04:40:00Z,17.0020,-81.5010,1016.5,1111122 
NDBC,ioos:station:wmo:42057:1,2017-03-15T05:40:00Z,17.0020,-81.5010,1016.0,1111122 
NDBC,ioos:station:wmo:42057:1,2017-03-15T06:40:00Z,17.0020,-81.5010,1015.5,1111122 
NDBC,ioos:station:wmo:42057:1,2017-03-15T07:40:00Z,17.0020,-81.5010,1014.6,1111122 
NDBC,ioos:station:wmo:42057:1,2017-03-15T08:40:00Z,17.0020,-81.5010,1014.5,1111122 
NDBC,ioos:station:wmo:42057:1,2017-03-15T09:40:00Z,17.0020,-81.5010,1014.4,1111122 
NDBC,ioos:station:wmo:42057:1,2017-03-15T10:40:00Z,17.0020,-81.5010,1014.6,1111122 
NDBC,ioos:station:wmo:42057:1,2017-03-15T11:40:00Z,17.0020,-81.5010,1015.0,1111122 
NDBC,ioos:station:wmo:42057:1,2017-03-15T12:50:00Z,17.0020,-81.5010,1015.8,1111122 
NDBC,ioos:station:wmo:42057:1,2017-03-15T13:10:00Z,17.0020,-81.5010,1016.0,1111122 
NDBC,ioos:station:wmo:42057:1,2017-03-15T14:50:00Z,17.0020,-81.5010,1017.0,1111122 
NDBC,ioos:station:wmo:42057:1,2017-03-15T15:40:00Z,17.0020,-81.5010,1017.1,1111122 
NDBC,ioos:station:wmo:42057:1,2017-03-15T16:40:00Z,17.0020,-81.5010,1017.0,1111122 
NDBC,ioos:station:wmo:42057:1,2017-03-15T17:50:00Z,17.0020,-81.5010,1016.5,1111122 
NDBC,ioos:station:wmo:42057:1,2017-03-15T18:40:00Z,17.0020,-81.5010,1016.3,1111122 
NDBC,ioos:station:wmo:42057:1,2017-03-15T19:40:00Z,17.0020,-81.5010,1015.6,1111122 
NDBC,ioos:station:wmo:42057:1,2017-03-15T20:40:00Z,17.0020,-81.5010,1015.1,1111122 
NDBC,ioos:station:wmo:42057:1,2017-03-15T21:40:00Z,17.0020,-81.5010,1015.3,1111122 
NDBC,ioos:station:wmo:42057:1,2017-03-15T22:50:00Z,17.0020,-81.5010,1015.9,1111122 
NDBC,ioos:station:wmo:42057:1,2017-03-15T23:40:00Z,17.0020,-81.5010,1016.1,1111122 
NDBC,ioos:station:wmo:42057:1,2017-03-16T00:40:00Z,17.0020,-81.5010,1017.0,1111122 
NDBC,ioos:station:wmo:42057:1,2017-03-16T01:20:00Z,17.0020,-81.5010,1017.3,1111122 
NDBC,ioos:station:wmo:42057:1,2017-03-16T02:40:00Z,17.0020,-81.5010,1018.0,1111122 
NDBC,ioos:station:wmo:42057:1,2017-03-16T03:50:00Z,17.0020,-81.5010,1018.1,1111122 
NDBC,ioos:station:wmo:42057:1,2017-03-16T04:40:00Z,17.0020,-81.5010,1018.3,1111122 
NDBC,ioos:station:wmo:42057:1,2017-03-16T05:40:00Z,17.0020,-81.5010,1017.5,1111122 
NDBC,ioos:station:wmo:42057:1,2017-03-16T06:50:00Z,17.0020,-81.5010,1016.5,1111122 
NDBC,ioos:station:wmo:42057:1,2017-03-16T07:50:00Z,17.0020,-81.5010,1015.9,1111122 
NDBC,ioos:station:wmo:42057:1,2017-03-16T08:40:00Z,17.0020,-81.5010,1015.8,1111122 
NDBC,ioos:station:wmo:42057:1,2017-03-16T09:40:00Z,17.0020,-81.5010,1015.8,1111122 
NDBC,ioos:station:wmo:42057:1,2017-03-16T10:40:00Z,17.0020,-81.5010,1016.0,1111122 
NDBC,ioos:station:wmo:42057:1,2017-03-16T11:40:00Z,17.0020,-81.5010,1016.5,1111122 
NDBC,ioos:station:wmo:42057:1,2017-03-16T12:40:00Z,17.0020,-81.5010,1016.9,1111122 
NDBC,ioos:station:wmo:42057:1,2017-03-16T13:40:00Z,17.0020,-81.5010,1017.5,1111122 
NDBC,ioos:station:wmo:42057:1,2017-03-16T14:40:00Z,17.0020,-81.5010,1018.0,1111122 
NDBC,ioos:station:wmo:42057:1,2017-03-16T15:50:00Z,17.0020,-81.5010,1018.6,1111122 
NDBC,ioos:station:wmo:42057:1,2017-03-16T16:40:00Z,17.0020,-81.5010,1018.4,1111122 
NDBC,ioos:station:wmo:42057:1,2017-03-16T17:40:00Z,17.0020,-81.5010,1018.0,1111122 
NDBC,ioos:station:wmo:42057:1,2017-03-16T18:10:00Z,17.0020,-81.5010,1017.5,1111122 
NDBC,ioos:station:wmo:42057:1,2017-03-16T19:50:00Z,17.0020,-81.5010,1016.3,1111122 
NDBC,ioos:station:wmo:42057:1,2017-03-16T20:30:00Z,17.0020,-81.5010,1016.0,1111122 
NDBC,ioos:station:wmo:42057:1,2017-03-16T21:50:00Z,17.0020,-81.5010,1016.0,1111122 
NDBC,ioos:station:wmo:42057:1,2017-03-16T22:40:00Z,17.0020,-81.5010,1016.4,1111122 
NDBC,ioos:station:wmo:42057:1,2017-03-17T06:40:00Z,17.0020,-81.5010,1016.9,1111122 
NDBC,ioos:station:wmo:42057:1,2017-03-17T07:40:00Z,17.0020,-81.5010,1016.6,1111122 
NDBC,ioos:station:wmo:42057:1,2017-03-17T08:40:00Z,17.0020,-81.5010,1016.0,1111122 
NDBC,ioos:station:wmo:42057:1,2017-03-17T09:40:00Z,17.0020,-81.5010,1016.0,1111122 
NDBC,ioos:station:wmo:42057:1,2017-03-17T10:40:00Z,17.0020,-81.5010,1016.5,1111122 